Theta_e
339 339 341 341 342 342 342 344 346 344 345 347 347 348 351 352 354 353 351 350 350 352 354 353 352 353 352 353 352 351 352 351 351 350 350 349 350 350 349 348 347 344 341 343 347 349 351 349 344 343 344 347 349 350 350 349 348 348 349 349 348 348 348 349 349 349 350 351 351 350 350 350 350 350 349 349 348 347 347 347 346 345 345 345 345
339 340 340 339 341 342 340 341 346 346 343 345 347 348 350 351 352 353 353 352 351 351 352 353 352 351 351 352 353 353 353 353 352 351 350 350 351 351 351 348 345 344 342 342 344 347 351 351 350 347 347 348 351 351 351 351 351 351 351 350 349 349 349 349 349 349 350 351 350 350 350 350 349 350 349 348 348 347 345 345 345 345 344 344 344
341 340 339 340 340 343 341 340 344 345 343 345 348 348 349 349 350 353 354 353 352 352 352 354 353 351 351 352 353 354 354 354 353 351 351 351 352 352 353 351 346 342 342 342 343 346 350 351 351 351 350 349 350 350 351 351 352 352 352 351 350 349 349 349 349 349 350 350 350 350 350 349 350 349 350 350 349 348 345 343 344 344 344 344 343
345 342 341 340 340 342 342 340 341 343 344 344 346 349 349 348 351 353 354 353 352 353 353 353 353 352 352 352 353 354 353 353 352 352 352 351 351 352 353 352 346 342 341 343 343 345 348 351 351 352 351 351 351 350 350 351 351 351 351 351 351 350 349 350 350 350 350 350 350 350 350 350 350 350 350 350 349 349 348 346 346 346 345 345 344
347 344 342 341 341 341 341 341 340 342 345 346 346 349 350 349 349 352 352 352 353 354 353 353 353 352 353 354 354 355 354 353 352 352 352 351 350 351 353 353 347 343 342 343 344 344 346 349 350 351 351 352 351 350 350 350 351 351 351 351 351 350 349 349 350 351 351 350 350 350 350 350 350 350 350 350 349 350 350 349 349 349 348 348 347
349 345 342 342 343 343 344 344 343 342 343 346 346 347 350 349 349 350 352 352 352 352 353 353 354 353 354 354 353 354 353 353 353 352 352 352 352 351 353 354 350 345 342 343 344 345 345 346 348 350 350 351 351 351 351 351 351 351 350 350 350 350 349 347 347 347 350 351 351 350 350 350 350 350 350 351 350 350 350 350 350 350 350 349 349
351 348 345 344 345 346 346 346 346 344 343 344 346 348 349 350 350 349 350 350 350 350 350 351 354 355 354 353 352 353 353 353 353 352 352 352 352 352 352 353 353 349 345 344 344 344 345 345 347 349 350 350 351 351 351 351 351 352 352 351 351 351 351 349 346 344 343 346 349 350 351 350 350 350 350 351 351 350 350 350 350 350 350 349 350
352 352 350 349 349 348 347 347 347 345 344 344 344 348 350 351 351 350 350 351 351 351 352 352 354 354 354 354 354 353 354 353 353 353 353 352 353 353 353 352 353 353 350 345 343 344 346 345 346 347 348 350 351 351 350 350 351 352 353 353 352 352 352 351 350 347 342 341 342 346 350 350 350 351 351 350 350 350 350 350 350 350 350 350 350
352 353 353 351 352 351 349 348 348 345 345 346 344 346 348 350 352 351 351 353 351 352 354 354 356 356 355 356 356 355 354 353 353 353 353 352 353 353 353 352 352 352 353 350 346 345 345 346 346 346 347 348 349 349 349 349 350 350 352 353 353 352 353 352 352 352 350 346 343 342 344 347 350 351 351 350 350 350 350 350 350 350 350 350 350
351 351 353 353 353 351 349 348 348 347 347 348 346 346 348 349 350 351 352 353 351 352 352 352 355 356 356 356 357 356 355 354 352 352 353 354 354 353 353 354 353 352 353 352 351 350 348 346 345 346 346 347 347 348 348 349 349 349 350 351 352 352 352 352 352 352 353 352 350 347 344 343 344 347 350 351 351 350 350 350 350 350 349 349 349
352 351 352 353 353 351 349 349 349 349 349 349 348 349 349 349 351 351 353 353 353 352 352 352 353 355 357 359 358 358 358 356 353 352 353 354 354 354 353 354 354 353 352 352 353 354 352 350 347 346 346 346 346 345 347 347 348 348 348 350 351 352 352 351 351 351 351 352 351 351 350 347 345 345 345 349 351 351 350 350 350 350 349 349 349
354 353 352 352 352 351 350 350 349 350 349 348 349 349 350 350 351 351 353 353 353 353 351 353 355 354 355 357 358 358 359 357 354 352 351 352 353 355 356 355 354 354 354 353 353 354 354 353 351 347 346 346 345 344 345 345 346 347 347 348 349 350 351 350 350 350 350 350 350 349 350 350 350 346 342 344 349 351 350 350 350 350 349 349 349
355 355 354 352 352 352 352 350 349 350 350 350 350 351 351 351 351 352 353 353 353 354 352 354 357 356 355 355 354 357 359 360 358 355 353 352 353 355 356 355 355 355 354 354 353 353 353 354 354 351 347 347 346 344 344 344 344 344 346 347 347 348 349 349 349 349 348 348 348 347 347 348 349 348 341 339 344 348 350 350 350 349 348 348 348
354 354 354 354 353 352 353 351 349 352 353 353 352 353 352 351 353 353 353 354 353 352 352 355 358 359 359 357 356 357 356 356 357 357 356 353 352 354 355 355 354 355 354 354 354 353 354 354 355 355 352 351 350 347 345 344 344 344 344 346 347 347 348 347 348 348 348 348 347 346 346 346 346 347 343 338 338 343 346 348 348 348 348 347 346
354 353 353 354 354 352 352 352 352 354 356 355 354 355 353 352 355 355 354 354 354 351 352 355 357 358 358 359 361 360 357 355 355 357 358 356 353 353 354 354 355 355 353 353 354 354 356 355 355 356 355 355 354 352 349 346 344 344 344 345 346 346 347 348 348 348 348 348 348 347 346 346 345 346 345 343 341 341 343 345 346 346 346 346 346
354 353 354 355 355 353 352 352 353 354 356 356 355 355 355 354 356 356 355 354 353 351 351 352 355 355 356 360 360 358 361 361 358 358 358 358 357 355 355 355 355 356 356 354 353 354 355 356 355 355 356 356 356 355 354 351 348 344 343 344 345 345 346 347 348 348 348 348 348 348 348 347 347 346 346 346 345 344 344 345 346 347 347 347 347
355 354 355 355 355 355 354 353 354 355 357 356 354 354 355 355 355 356 355 355 354 351 350 352 353 352 353 358 359 359 362 360 359 360 359 359 359 357 357 357 356 357 357 355 354 354 355 356 356 356 356 355 355 355 355 355 354 351 347 344 343 344 345 346 347 347 348 348 348 348 348 348 348 348 348 348 347 347 347 347 348 348 347 348 348
355 355 355 355 355 355 354 355 355 355 355 355 354 353 354 355 355 355 355 356 355 352 351 350 350 351 350 352 355 358 359 358 359 362 361 359 359 358 356 356 357 357 357 356 355 356 356 356 356 356 355 355 355 355 356 355 356 356 353 350 348 345 343 344 345 346 347 347 347 346 347 347 347 347 348 348 348 348 348 349 349 348 348 348 348
353 354 354 355 355 354 354 355 354 355 355 355 355 354 353 354 355 355 355 355 354 353 352 350 348 350 350 349 349 349 352 356 359 361 361 361 359 358 358 357 357 357 357 358 358 356 356 356 356 356 355 355 355 355 356 355 355 356 355 355 354 351 348 345 344 344 346 347 347 346 346 345 346 346 347 348 349 349 349 349 349 349 349 349 349
352 353 354 355 355 354 353 355 355 355 355 354 354 355 354 353 354 354 353 353 354 354 353 351 349 349 350 350 350 349 349 352 355 357 360 363 361 358 357 358 358 357 357 360 359 355 356 356 356 356 356 356 356 356 356 356 355 355 355 355 355 355 353 351 347 345 346 346 346 346 346 345 345 344 345 346 348 349 349 349 349 349 349 348 348
352 352 353 353 353 353 354 356 355 354 356 354 353 356 355 354 355 355 353 353 355 354 352 351 351 350 349 349 349 349 349 350 352 353 355 361 363 358 356 356 357 357 357 359 360 356 355 357 356 355 357 357 357 357 357 356 356 355 355 354 354 354 354 353 351 349 348 347 346 346 346 346 345 345 345 346 347 348 348 348 348 348 348 347 348
354 352 353 354 354 354 355 356 355 354 355 356 355 356 355 355 355 353 353 354 355 354 352 352 352 351 350 349 350 351 351 352 351 351 355 360 362 359 357 358 357 356 356 356 357 357 356 356 356 357 358 358 358 357 357 357 357 356 355 354 354 354 353 352 351 351 350 349 348 348 347 346 346 346 346 346 346 347 347 347 347 347 347 346 347
355 353 353 355 354 354 355 355 354 354 355 355 355 355 356 357 355 351 352 354 355 355 352 352 351 351 351 349 349 351 352 354 353 352 357 361 362 359 356 358 358 357 356 355 356 357 357 357 360 360 359 358 358 358 358 358 358 358 357 355 355 354 354 353 353 352 351 350 350 349 348 348 347 347 347 347 347 347 347 347 347 346 346 345 345
355 355 354 355 355 355 355 355 355 355 354 353 353 354 355 355 354 351 352 353 355 355 353 352 351 351 351 350 348 348 348 352 352 352 355 357 360 360 357 359 361 359 357 358 359 359 358 358 361 360 357 357 358 358 359 358 358 359 358 357 356 355 355 354 354 353 353 352 351 350 350 349 349 348 347 346 346 346 345 345 345 345 344 344 344
354 354 354 354 354 355 354 355 355 354 353 353 352 352 352 352 352 351 351 352 354 355 353 353 353 351 350 349 348 347 346 349 351 352 352 353 357 361 359 357 360 358 355 358 363 362 360 359 361 359 356 357 357 358 359 358 359 359 360 358 356 356 355 355 355 354 354 354 353 352 351 350 349 347 346 345 344 344 344 344 344 344 345 345 345
354 354 353 353 352 354 355 356 355 354 353 352 352 352 352 352 352 351 350 352 354 353 353 354 353 352 351 349 348 347 346 346 348 350 351 352 354 357 358 357 357 354 352 356 361 362 360 359 359 360 359 358 358 358 359 358 359 360 359 360 358 357 356 356 355 355 354 354 353 352 351 349 348 347 347 346 345 345 346 346 346 346 346 347 347
354 354 354 353 352 353 355 356 356 355 353 352 352 353 353 353 353 351 350 353 355 353 352 354 355 353 352 351 349 348 346 345 346 347 348 350 352 352 357 362 363 357 355 358 359 358 358 357 357 359 359 359 359 359 359 358 358 359 359 359 359 358 357 356 355 354 354 353 352 351 350 349 349 348 348 348 348 349 350 350 349 349 349 350 351
351 352 353 354 354 353 355 355 355 354 352 353 353 353 354 354 354 354 355 356 355 353 351 353 354 354 353 352 350 348 347 346 345 346 347 347 350 350 353 359 365 365 361 359 358 356 356 357 357 357 358 359 359 358 358 357 358 359 358 358 359 359 359 358 357 357 356 355 353 352 351 351 351 351 351 350 351 352 353 354 353 353 353 353 353
347 348 349 351 353 354 354 355 355 354 353 353 354 355 356 356 354 355 357 358 357 356 354 352 353 353 354 353 352 350 347 347 347 348 348 348 348 350 350 352 358 366 365 362 360 357 355 357 356 355 358 360 359 357 357 358 359 360 358 357 359 359 359 359 358 358 358 357 356 354 352 352 352 352 352 352 352 352 354 355 354 354 355 355 355
345 345 346 348 350 352 354 355 355 355 354 353 353 354 356 356 355 354 355 357 358 357 355 354 353 354 353 352 352 351 348 348 348 348 348 348 347 348 350 350 353 360 364 365 365 357 352 356 356 355 357 359 359 358 358 359 359 359 359 358 360 361 361 361 359 359 359 359 358 356 353 352 352 352 351 352 352 352 353 354 354 354 355 354 355
344 344 346 347 349 351 353 354 355 356 357 355 354 354 354 355 356 355 355 356 357 355 351 352 354 354 353 353 352 351 350 348 347 348 347 348 349 348 350 350 351 355 357 362 367 361 352 353 354 352 354 357 359 359 359 359 360 360 359 359 360 361 361 361 360 360 361 360 360 360 357 355 353 352 351 351 352 353 353 354 356 356 356 355 355
345 345 346 348 350 351 352 353 354 356 356 356 355 354 353 354 355 354 356 356 356 356 352 349 351 351 351 352 353 352 351 350 347 348 348 348 348 348 349 349 350 352 354 360 366 365 356 352 353 353 355 358 357 359 360 360 359 358 358 358 359 359 359 360 361 361 361 361 361 361 359 357 355 354 353 353 353 353 354 355 356 357 357 357 355
346 346 347 348 349 349 350 352 354 354 354 354 355 355 354 353 353 353 354 356 356 356 355 354 353 352 350 351 352 352 351 351 348 347 348 348 347 347 347 349 349 351 354 358 363 364 360 355 352 353 356 359 358 358 359 360 358 356 357 359 359 358 358 359 360 361 360 360 360 358 356 355 354 354 354 354 354 355 355 356 357 357 358 358 357
345 346 346 347 346 347 347 350 352 353 353 353 354 355 355 353 352 353 354 354 354 355 356 356 356 355 352 350 352 352 351 350 349 349 349 348 347 345 345 348 348 349 352 356 359 362 362 358 355 354 354 358 358 356 356 357 358 357 357 359 360 359 359 358 359 360 359 359 358 358 356 355 354 354 353 353 354 355 356 356 357 358 357 358 357
345 346 346 346 346 346 347 349 351 353 353 352 352 354 355 353 352 352 353 353 354 355 355 355 355 356 354 352 352 353 351 350 349 348 348 347 346 345 345 345 347 348 350 352 356 359 361 360 358 355 354 355 356 355 355 356 358 359 359 360 361 361 360 358 358 359 359 360 358 358 358 358 357 356 354 353 352 352 354 355 356 356 357 358 357
345 345 345 346 346 347 348 349 351 352 353 353 352 353 354 354 353 352 352 353 354 355 355 354 353 355 356 354 353 351 349 349 349 348 348 347 346 344 343 342 344 347 348 351 354 357 358 359 358 356 354 354 353 355 356 355 356 358 358 359 360 360 359 358 359 358 359 361 359 358 359 360 359 358 357 356 353 352 352 352 354 355 356 356 355
344 345 346 346 346 347 348 348 349 350 352 352 352 353 353 353 354 353 352 353 354 354 354 354 353 353 355 355 355 353 349 348 349 348 347 346 346 345 344 342 342 345 347 350 353 355 356 358 359 357 357 355 354 356 355 354 356 358 359 359 361 360 359 359 359 360 360 361 358 356 357 359 359 360 358 357 355 353 351 351 352 353 354 354 354
345 345 346 346 346 346 346 347 347 348 350 351 351 351 351 353 353 352 352 353 353 353 353 353 353 353 354 354 353 353 352 350 351 350 348 347 346 345 345 342 342 345 347 349 352 354 356 357 359 359 358 358 357 357 357 355 356 358 359 359 358 359 360 359 360 360 360 359 357 356 357 359 359 360 359 358 356 354 352 352 351 352 353 353 353
344 345 345 345 346 346 346 346 346 347 348 349 350 350 350 352 352 351 351 351 351 352 352 352 352 352 353 353 352 352 353 353 354 352 350 349 348 347 346 344 345 348 348 350 353 357 358 358 360 361 361 360 360 358 355 355 356 357 356 355 356 356 358 360 361 361 360 359 359 358 359 361 359 358 358 357 357 354 354 352 352 352 352 352 352
344 344 345 345 346 346 347 347 347 347 348 349 351 351 351 352 352 352 351 351 351 351 352 351 352 352 352 352 351 351 352 353 354 353 350 348 349 349 350 348 348 349 351 352 354 357 359 359 360 361 361 362 362 358 355 354 355 356 356 356 357 357 357 358 359 360 360 360 360 360 360 361 359 357 357 358 358 357 356 355 354 353 352 352 352
344 344 344 344 345 345 346 347 347 347 348 349 350 350 352 353 352 352 351 350 351 350 351 351 351 351 352 351 351 351 352 352 352 352 350 348 348 349 351 352 352 353 355 356 355 356 358 359 360 361 362 363 363 359 354 352 354 355 357 358 359 360 358 358 357 358 359 360 360 360 359 358 357 355 355 356 357 358 357 357 357 356 355 354 353
343 343 343 344 344 345 345 346 346 347 348 348 347 347 350 352 351 351 351 350 350 350 350 351 350 350 350 351 351 351 352 352 352 353 351 349 349 348 350 351 351 352 355 358 358 357 359 360 360 361 362 364 364 359 355 354 353 354 356 357 356 357 357 356 355 355 357 359 361 360 359 357 356 355 355 356 356 356 356 357 358 358 357 356 355
343 343 343 343 343 344 345 346 345 346 347 347 346 346 347 349 350 351 351 350 350 350 350 350 350 350 350 351 351 351 351 352 352 353 353 352 351 350 349 350 350 349 352 356 359 359 360 362 362 360 362 363 363 360 357 355 353 353 355 356 354 353 352 353 354 355 357 359 360 360 358 357 357 357 356 355 354 354 354 354 356 358 358 356 355
342 342 342 343 343 344 344 345 345 346 346 347 346 345 346 347 349 351 350 350 350 349 349 349 348 349 351 351 351 350 350 351 351 352 353 353 352 352 352 352 351 351 351 354 358 360 360 362 362 361 360 360 361 362 360 356 355 354 354 354 353 352 352 351 352 356 359 359 358 358 358 358 357 357 355 353 354 354 353 353 355 357 357 356 356
342 342 342 343 343 343 344 344 344 344 345 345 346 344 345 347 349 350 350 349 349 349 349 349 348 349 350 350 351 351 351 351 352 352 354 354 354 356 356 354 352 352 352 353 356 361 361 361 362 360 359 357 358 361 361 358 355 354 355 355 353 352 353 352 353 355 359 359 358 357 357 356 356 355 354 353 353 354 354 353 355 355 356 356 356
340 342 342 343 343 343 343 343 343 344 344 345 345 344 344 347 348 349 349 348 348 348 348 348 348 348 349 350 350 350 350 351 352 353 355 356 357 356 355 353 353 354 355 354 355 358 360 361 361 360 359 357 357 359 361 360 356 355 356 357 354 354 355 355 355 356 357 359 358 357 356 356 354 354 355 354 353 353 352 353 354 354 355 355 355
340 342 342 342 343 343 343 343 343 344 344 344 345 344 345 347 347 348 348 347 348 348 347 347 347 347 349 350 350 350 349 349 351 353 354 355 355 355 354 353 354 354 355 355 356 356 358 359 359 359 359 357 357 359 361 360 359 355 356 357 357 356 357 355 356 357 357 358 358 356 355 355 354 354 355 354 352 352 352 352 353 353 353 353 352
340 341 341 342 342 342 342 342 342 343 343 343 344 345 345 346 346 347 348 348 348 348 347 348 348 347 348 349 349 348 347 348 349 352 353 352 353 354 353 353 353 352 353 354 355 355 357 357 358 358 358 358 358 359 359 360 361 359 357 359 359 357 357 356 357 358 357 358 358 357 355 355 354 354 353 353 352 351 351 352 353 352 351 350 350
340 341 341 341 341 341 341 342 341 342 343 343 343 343 344 344 345 347 347 348 349 348 348 348 347 347 348 348 347 347 347 348 350 351 351 351 352 353 352 352 351 351 351 351 352 353 355 356 357 357 357 358 359 360 359 360 361 360 358 356 357 357 356 357 358 358 357 357 357 356 356 355 354 354 354 353 352 350 351 351 351 351 349 349 350
340 341 341 341 341 341 340 340 341 342 342 342 342 342 342 343 344 345 345 346 347 347 349 349 347 347 348 348 347 347 348 348 350 352 351 350 350 350 351 350 350 349 349 350 351 352 354 355 356 355 356 357 357 359 360 359 361 360 356 352 355 357 356 356 357 357 357 355 353 354 355 356 354 354 354 352 351 350 350 351 350 349 348 348 349
340 340 340 340 340 340 340 340 341 341 342 343 342 342 341 341 342 344 344 345 346 347 347 347 347 347 348 348 347 347 348 349 349 350 350 350 347 345 345 348 348 347 348 349 350 352 353 353 353 354 354 355 355 356 357 358 359 361 357 353 354 356 356 356 356 357 357 355 351 352 355 355 354 354 353 351 350 351 350 349 349 348 347 347 348
Wind_Speed
10 9 8 8 8 7 7 9 9 7 5 4 2 7 11 9 8 10 11 11 13 13 11 11 12 13 11 11 14 13 14 14 14 17 16 16 19 20 19 19 21 23 24 23 23 22 22 22 22 22 22 21 20 20 19 19 19 18 18 17 17 17 16 16 15 15 14 14 15 14 14 14 13 13 13 12 12 12 12 12 11 11 11 10 10
12 11 8 8 8 6 9 10 10 9 6 5 3 6 10 9 9 9 11 12 13 13 11 10 11 12 11 11 13 13 14 14 13 15 16 16 20 21 19 19 21 23 25 25 24 23 23 23 23 24 24 23 22 21 20 20 19 18 18 18 18 18 17 17 16 16 15 15 15 15 15 15 15 14 14 13 13 12 12 12 12 11 11 11 10
12 13 12 10 8 8 10 10 10 10 8 8 5 4 7 11 10 9 12 14 13 13 11 9 9 9 9 11 13 13 14 15 14 15 16 16 19 21 20 20 21 23 25 26 26 25 24 23 23 24 24 24 23 22 21 20 20 20 19 19 19 19 19 18 18 17 17 16 16 16 16 16 16 15 15 14 14 13 12 12 11 11 11 11 10
9 11 14 13 10 9 10 10 10 10 9 9 7 4 5 8 10 12 12 11 11 11 9 8 7 7 9 11 13 13 13 15 15 14 15 17 19 19 19 20 21 23 25 27 28 27 26 25 24 24 24 24 24 24 23 22 21 21 20 20 19 19 19 19 19 19 19 18 17 17 17 17 17 16 16 16 15 15 14 13 13 12 12 12 12
9 11 12 12 11 11 12 13 13 11 10 9 7 7 6 6 8 11 11 9 11 10 8 9 10 10 11 12 12 13 13 13 13 13 14 17 19 18 18 20 21 22 24 26 28 29 28 27 26 25 24 24 24 24 25 25 24 22 22 21 20 20 20 19 19 19 19 19 18 18 18 18 18 17 17 17 17 17 16 15 15 14 14 14 14
13 14 13 12 11 12 13 13 14 13 12 9 7 9 9 8 8 10 12 13 14 13 12 14 14 13 13 13 12 13 13 13 12 13 14 15 16 17 18 19 20 22 23 24 26 29 29 29 28 27 26 26 25 25 25 25 25 24 23 23 22 21 21 20 20 20 19 19 19 19 19 19 19 18 18 18 18 18 18 17 17 17 16 16 15
15 15 16 15 13 14 13 11 12 15 16 12 9 11 10 11 15 14 16 18 17 18 17 14 14 13 12 12 12 12 12 12 12 12 13 14 15 16 17 18 18 20 23 24 26 27 28 30 29 28 28 27 27 26 25 25 25 25 24 24 24 23 22 21 21 21 21 20 20 19 19 20 19 19 19 19 18 18 18 18 18 18 18 18 17
15 16 17 17 15 16 15 13 14 14 17 17 13 13 11 13 17 15 15 16 15 16 15 10 9 10 10 10 10 10 10 11 12 13 13 13 14 15 16 17 17 19 21 24 26 27 28 29 30 29 29 28 28 27 27 26 25 25 25 24 24 24 23 22 22 21 21 22 21 20 20 20 20 20 20 20 20 19 19 19 19 19 19 18 18
16 17 18 18 17 17 17 15 14 14 16 21 17 16 14 14 15 13 12 11 11 13 10 8 7 9 10 9 9 9 10 11 12 14 13 11 12 14 15 15 17 19 21 23 25 26 28 29 29 30 30 29 28 28 28 27 26 26 26 26 25 25 24 24 23 22 21 21 22 21 21 21 21 21 21 21 20 20 20 19 19 19 19 19 18
15 17 17 18 18 18 19 17 15 15 17 20 17 16 15 13 12 12 12 11 11 12 10 9 9 9 10 9 9 9 8 9 11 12 12 11 11 13 14 14 16 18 20 22 24 25 27 29 29 30 30 30 30 30 29 29 28 27 27 27 26 26 25 25 24 23 23 22 22 22 22 22 22 22 22 21 21 21 21 20 20 20 19 19 19
14 15 16 17 17 18 19 18 17 17 17 18 16 16 16 13 12 11 11 12 11 11 10 9 10 9 9 8 7 8 7 8 10 11 11 12 12 12 14 15 15 17 18 22 24 24 25 27 29 30 31 31 32 31 31 30 29 29 29 28 27 27 27 26 26 25 24 24 23 22 22 22 22 23 23 22 22 21 21 21 21 20 20 20 20
14 15 16 17 17 18 18 19 19 19 19 19 17 16 16 14 13 12 12 12 12 11 11 10 9 8 7 8 6 6 7 6 8 10 11 12 12 12 13 14 15 17 18 20 22 23 25 26 27 30 31 32 33 33 32 31 31 30 30 30 29 29 28 28 27 26 26 25 25 24 24 23 23 23 23 24 23 22 22 22 21 21 20 20 20
16 15 16 18 18 17 18 19 20 20 19 20 19 16 17 15 13 13 12 12 12 12 12 11 10 6 4 5 6 6 7 8 9 11 11 12 12 13 13 13 15 16 16 19 21 21 23 26 26 28 30 31 31 33 33 32 33 32 32 31 31 31 30 29 28 28 27 27 26 25 25 25 24 24 23 24 24 23 22 22 22 21 21 21 21
17 16 18 20 20 20 20 20 20 19 19 19 18 18 19 17 13 12 12 12 13 13 14 14 10 7 5 3 3 5 8 9 10 11 10 11 13 13 13 14 15 15 16 19 20 20 22 25 25 26 27 28 28 30 32 33 33 34 33 32 32 32 31 31 30 30 29 28 27 27 26 26 25 24 23 23 24 24 23 23 23 22 22 22 22
18 18 19 20 21 22 22 21 21 20 18 19 18 17 18 18 15 14 13 12 13 13 16 16 11 8 5 2 1 2 4 7 10 11 10 10 12 12 13 15 15 14 15 18 19 20 21 23 24 24 25 26 25 26 29 32 34 34 34 33 33 33 33 32 32 31 31 30 29 28 27 26 26 25 24 24 24 24 24 24 24 23 23 23 23
19 20 21 20 19 21 23 22 22 20 19 19 20 18 17 18 17 16 14 13 13 13 14 17 16 11 5 1 1 1 2 4 7 10 11 11 12 12 13 15 15 13 14 16 17 19 21 22 23 23 24 25 24 24 26 28 30 33 34 34 34 34 34 34 33 32 32 31 30 30 29 28 26 26 25 25 25 24 24 24 24 24 24 24 23
19 21 22 20 18 19 20 21 22 22 21 21 22 21 18 18 18 17 15 14 14 14 13 16 19 16 10 4 2 1 2 3 5 6 10 12 13 13 13 14 14 14 15 16 16 17 19 21 22 22 23 24 23 24 25 25 26 29 32 33 34 35 35 34 34 34 33 32 31 31 30 29 28 27 26 26 25 25 25 25 24 24 24 24 24
18 19 20 19 20 20 19 21 22 21 22 22 22 21 20 18 18 17 16 15 15 16 15 16 17 17 16 11 7 6 4 5 4 2 6 10 11 13 14 15 15 16 16 17 19 18 18 18 20 21 23 23 24 24 24 25 24 25 27 29 30 33 35 35 35 35 35 34 33 32 31 30 29 28 28 27 27 26 25 25 25 24 24 24 24
19 19 19 19 20 21 21 22 20 19 21 24 23 22 21 19 18 18 17 15 16 17 17 17 15 14 17 16 14 12 10 10 5 2 3 4 8 11 14 15 15 17 17 17 20 21 20 19 18 19 21 22 23 24 23 23 24 24 25 26 25 27 30 34 35 36 36 35 34 33 32 31 31 30 29 28 28 27 26 26 26 25 25 25 25
18 18 18 19 19 20 21 21 20 19 22 26 26 23 21 20 19 20 20 18 17 17 18 18 15 13 14 15 14 14 14 15 12 8 3 1 4 8 13 15 15 17 19 19 21 21 21 20 19 18 19 21 22 23 24 23 23 23 24 24 24 24 25 27 31 34 35 36 35 34 33 33 32 31 30 29 28 27 27 27 27 26 26 26 27
16 16 16 17 17 19 20 20 19 20 22 28 28 24 21 20 18 19 20 19 18 18 19 20 18 15 13 13 14 14 15 16 15 14 8 3 3 4 8 11 12 18 21 20 21 21 21 21 20 19 18 20 22 22 23 23 23 23 24 24 25 26 25 24 25 28 31 34 35 35 35 34 33 32 31 30 30 29 29 28 28 28 28 28 27
15 16 17 17 17 19 21 22 22 21 22 24 25 23 22 21 21 21 20 19 18 18 20 20 19 18 16 15 15 13 11 10 12 14 9 4 4 4 7 9 8 15 22 24 22 21 21 21 20 21 21 20 21 22 23 23 22 23 22 23 25 26 26 25 24 24 25 28 30 33 34 34 34 33 33 32 32 31 31 30 30 29 29 28 27
14 15 17 18 18 21 23 23 24 24 24 24 24 24 21 20 22 22 22 21 20 19 19 20 20 20 19 16 15 14 12 9 10 11 8 5 5 4 7 11 11 12 17 22 24 22 21 21 20 21 23 22 21 22 23 23 22 22 21 22 24 26 25 25 24 24 24 25 26 28 30 31 32 32 32 32 32 31 31 30 29 29 28 28 27
13 15 17 18 19 21 22 22 24 27 28 29 28 27 24 22 22 22 22 21 20 20 20 20 20 20 19 18 16 16 17 15 13 12 10 10 9 4 5 10 10 11 14 15 19 22 22 21 21 22 23 23 22 21 22 23 23 22 21 21 22 23 24 24 23 22 23 24 24 26 27 28 29 29 30 30 30 29 29 28 28 28 27 27 26
14 16 16 16 17 20 23 24 25 26 26 27 27 26 26 26 24 23 22 20 19 20 20 20 20 20 19 19 18 19 18 16 16 15 14 13 12 6 7 11 8 10 14 13 15 19 22 23 22 22 22 21 21 22 22 23 23 23 22 22 21 22 23 23 22 21 21 22 23 24 25 26 27 27 28 28 27 27 26 26 26 25 25 24 24
13 14 15 15 16 18 23 24 23 23 23 24 24 23 24 25 25 25 23 19 18 19 19 20 21 21 20 19 20 20 19 17 16 18 16 14 13 8 6 9 9 9 11 13 14 13 17 24 24 22 22 21 21 22 23 23 23 23 22 22 22 22 23 23 22 21 21 21 21 22 23 23 24 25 25 25 25 25 25 24 24 23 23 22 22
11 12 14 15 15 16 19 20 20 21 22 22 22 22 22 22 22 23 22 20 20 20 19 19 20 22 23 22 21 20 20 19 17 18 17 15 15 15 10 5 5 6 6 10 13 13 16 21 24 24 23 22 23 22 23 22 21 22 22 21 22 23 23 22 21 20 19 19 20 20 21 21 22 22 23 24 23 23 23 23 22 22 21 21 21
12 12 13 14 13 13 16 18 18 18 19 20 20 20 20 21 21 21 20 21 24 23 21 21 20 22 23 23 22 21 21 20 18 17 17 16 15 16 16 11 5 3 3 5 7 12 17 17 18 23 22 22 24 24 23 21 20 20 19 19 22 23 22 21 20 19 19 18 19 19 20 21 21 22 22 22 22 22 21 21 21 20 20 20 20
13 12 12 12 12 13 15 17 17 17 17 18 18 18 19 21 23 22 21 20 22 21 22 23 22 22 22 22 23 23 22 21 20 18 17 17 15 13 15 15 10 5 3 4 4 7 13 15 15 19 21 21 22 23 22 21 21 20 18 18 21 23 22 21 20 20 19 19 18 18 19 20 21 21 21 22 22 22 21 21 20 20 21 21 21
14 13 12 12 12 13 14 15 15 15 16 16 17 18 19 20 23 25 26 22 20 20 22 23 21 21 21 22 22 22 22 21 22 20 19 18 16 16 17 15 13 10 6 4 4 6 9 13 15 17 20 21 21 21 20 19 18 19 17 17 18 20 20 19 19 19 19 19 18 18 18 19 20 20 20 21 21 21 21 21 20 20 20 21 21
14 14 13 13 12 12 13 15 15 16 16 15 17 18 20 21 22 23 25 24 22 22 25 25 21 19 20 21 22 22 22 21 21 22 21 19 18 19 19 16 14 14 13 7 3 6 9 10 15 17 19 21 21 21 19 17 16 16 16 16 16 17 18 18 18 18 18 18 18 17 18 18 19 19 20 20 21 21 21 21 21 20 20 20 20
14 14 15 15 15 15 14 15 16 16 15 15 18 21 22 23 23 22 21 21 23 25 27 27 24 22 22 21 21 23 23 21 22 22 22 21 19 19 19 18 16 15 17 13 5 6 10 10 12 16 19 21 21 18 17 18 18 16 17 17 16 15 15 16 17 17 17 17 18 18 18 18 19 20 20 21 21 22 22 22 22 22 21 21 20
15 16 16 16 17 16 15 15 15 16 15 15 17 20 22 23 23 24 23 21 22 25 27 26 25 26 26 23 21 23 24 23 22 23 22 21 21 22 21 19 18 17 16 15 9 6 10 12 11 12 17 20 20 17 15 16 16 15 17 17 15 13 13 13 15 16 16 17 18 19 19 19 20 20 21 22 23 23 24 24 24 23 23 22 21
17 17 17 16 16 15 14 15 17 17 17 17 17 18 20 22 22 23 24 23 23 26 28 27 25 25 26 27 24 23 23 24 24 24 23 22 22 24 22 20 20 19 16 16 12 8 9 12 13 13 13 16 19 17 16 15 14 14 16 17 15 14 14 13 14 15 16 17 17 18 18 18 18 19 20 22 24 25 25 25 25 25 24 23 23
17 17 17 16 16 16 17 17 18 18 17 17 17 18 20 21 23 24 24 23 23 25 29 31 28 24 23 25 26 24 22 23 24 24 24 25 25 22 20 20 21 20 20 20 17 12 10 12 13 14 13 13 15 14 13 12 12 12 15 15 14 14 15 15 15 15 15 16 15 15 17 18 17 17 17 19 21 23 25 25 26 25 25 24 24
16 16 17 18 18 18 18 17 17 17 16 15 15 17 19 19 21 24 25 25 24 23 26 31 31 27 24 25 28 28 25 24 24 24 24 25 26 24 21 21 19 19 19 21 21 19 15 12 13 14 13 11 11 11 11 11 12 14 14 14 14 14 14 15 14 14 15 14 14 14 14 16 17 17 16 16 18 20 22 24 24 25 24 24 24
17 17 18 19 18 18 18 17 17 17 16 14 14 15 17 18 19 21 23 25 26 23 24 28 29 27 24 26 30 30 29 27 25 24 24 25 26 25 24 21 18 16 16 18 22 23 18 13 12 13 12 10 7 8 12 14 14 14 13 13 13 13 14 14 14 14 16 16 17 17 15 14 16 17 16 17 18 19 20 22 23 23 23 23 23
18 18 19 19 19 19 18 18 18 18 18 17 15 16 17 18 19 20 20 24 26 26 27 27 27 26 26 26 27 27 28 28 25 22 22 24 26 26 26 24 21 18 17 16 18 21 19 15 13 12 12 11 8 7 10 13 14 14 13 12 13 14 14 15 14 13 15 17 17 17 16 14 14 16 18 20 20 20 20 21 21 21 21 21 21
19 19 19 19 19 19 19 19 19 19 19 20 18 17 17 17 18 19 21 23 23 24 25 27 27 27 28 29 29 29 29 28 25 21 19 22 24 24 24 23 21 18 17 16 14 16 17 15 13 12 11 11 11 10 9 11 13 14 15 12 12 14 16 16 15 14 14 13 13 14 14 13 14 17 19 20 19 19 20 20 20 21 21 21 21
19 19 19 19 19 19 19 19 19 19 19 20 19 17 16 15 16 17 20 22 24 24 24 25 26 27 28 30 32 34 34 33 32 31 27 23 23 23 21 20 20 19 18 16 14 14 15 14 13 13 12 12 12 12 11 11 12 14 14 13 12 13 13 14 15 15 14 13 11 10 11 12 16 19 20 19 19 18 19 19 20 21 21 21 21
19 19 20 20 20 21 20 20 20 20 20 20 19 16 14 14 15 16 17 19 21 23 24 25 27 28 29 29 31 32 32 33 35 36 35 31 28 25 23 22 20 20 20 17 15 14 15 14 12 12 12 12 13 13 13 14 15 15 13 13 13 12 10 10 13 14 14 14 11 9 9 11 15 19 19 19 20 20 19 19 19 20 21 20 20
20 20 20 21 21 21 21 21 21 20 20 20 19 17 16 16 17 18 18 18 18 20 22 23 25 27 28 29 30 32 32 31 31 33 35 35 35 32 27 23 23 21 18 17 16 15 13 13 13 12 11 11 14 16 17 17 19 17 14 14 14 12 10 10 11 12 12 13 12 10 10 10 11 14 15 15 16 17 18 18 17 16 17 17 17
21 20 20 20 20 20 20 20 21 20 20 21 20 18 18 19 19 19 19 18 18 19 21 23 24 25 25 27 29 30 31 30 30 32 35 36 36 35 31 27 25 24 22 19 18 17 14 12 13 14 13 12 14 17 19 19 19 18 18 17 14 13 11 8 7 8 9 12 12 10 10 11 12 15 16 14 14 15 15 17 16 14 13 13 12
20 20 20 20 20 20 20 20 21 20 19 20 20 18 18 19 19 19 19 18 17 19 21 23 25 25 25 26 26 27 29 30 29 31 33 33 33 33 31 29 28 27 26 24 20 19 17 15 14 15 16 15 15 16 19 20 19 20 20 18 16 14 13 11 8 7 7 9 10 9 9 11 13 15 16 14 14 14 12 13 15 13 12 11 10
21 21 20 21 21 21 21 20 20 20 20 20 20 18 18 19 18 18 19 18 17 18 20 21 23 25 25 25 24 25 27 28 27 27 28 27 27 28 28 28 30 32 32 28 24 21 20 19 18 18 19 18 17 17 20 21 21 19 18 18 18 16 15 15 14 11 9 10 10 8 8 10 12 14 14 12 12 13 11 9 11 12 11 10 10
21 21 21 21 21 20 20 21 21 20 20 20 20 19 18 18 18 18 19 19 18 19 19 20 22 23 25 25 24 24 25 25 25 25 25 26 25 25 26 25 26 29 28 27 26 26 24 23 22 22 22 21 20 19 19 21 21 21 20 20 20 19 19 19 17 14 12 11 11 9 7 9 11 12 13 11 10 12 11 8 8 9 9 8 9
21 22 21 21 21 20 20 21 21 21 20 19 19 18 18 18 18 18 19 19 19 19 19 20 21 22 23 24 24 24 24 24 24 23 23 24 24 23 24 24 24 25 25 25 24 25 27 28 28 27 26 24 23 22 21 21 21 23 23 22 21 21 19 18 16 14 12 12 12 10 8 9 10 11 13 12 10 10 9 7 7 8 7 8 10
21 21 21 21 20 20 21 21 21 21 21 19 19 18 19 19 18 17 19 19 18 18 18 20 20 21 22 24 23 22 24 24 23 23 21 21 21 21 21 22 23 26 29 29 26 23 25 28 31 32 32 30 28 26 25 22 21 23 23 20 18 18 16 11 10 11 11 12 13 13 10 9 11 13 14 12 10 10 10 8 7 7 7 8 8
21 21 20 21 21 21 22 22 21 21 21 20 19 18 19 19 17 17 18 19 17 17 17 18 19 19 21 22 21 21 23 23 23 23 22 21 22 22 21 21 22 25 27 28 26 25 26 27 30 32 34 34 30 28 27 24 23 24 22 18 17 18 14 9 8 11 13 13 13 14 12 10 12 14 13 11 10 10 10 9 8 6 6 6 6
22 21 21 21 22 22 21 21 21 21 21 21 20 19 19 18 17 17 18 19 18 17 16 17 19 19 19 20 19 19 22 24 24 23 21 22 24 22 21 21 22 24 24 21 21 24 27 27 27 28 31 33 33 31 29 26 25 26 25 22 21 20 16 12 11 10 12 14 16 14 12 11 13 14 12 8 8 9 11 10 8 7 5 5 6
22 22 22 21 22 22 21 21 21 20 20 20 20 20 19 19 18 18 18 20 19 16 16 18 20 20 20 20 19 20 22 25 25 22 19 21 22 22 22 21 22 25 24 20 20 24 25 25 25 26 27 30 33 36 34 30 27 28 28 27 25 22 19 17 15 10 7 10 16 17 15 13 14 15 13 8 5 6 10 10 8 8 7 6 7
Wind_Direction
266 255 245 252 265 258 278 270 225 211 208 174 194 225 221 225 250 258 249 247 236 226 225 226 214 204 205 204 200 197 195 196 193 192 193 194 196 196 197 202 203 204 203 200 201 201 200 199 198 198 198 201 204 204 204 207 209 211 213 213 214 215 216 218 220 221 219 218 221 222 225 227 230 235 239 240 239 240 242 247 252 254 257 262 267
276 286 287 270 264 261 284 280 227 210 208 209 241 214 219 244 265 264 252 254 246 227 220 222 214 209 214 212 204 198 194 195 196 194 195 194 195 196 198 204 206 207 207 205 204 204 204 204 203 203 203 205 207 208 207 208 210 211 213 215 215 216 216 218 220 222 223 222 223 224 227 230 231 234 238 242 243 243 245 247 250 253 255 260 265
273 290 298 284 268 261 268 271 239 224 219 222 234 218 238 251 254 258 247 250 248 221 214 222 218 212 209 211 209 201 195 194 196 195 195 196 195 197 199 203 207 208 208 208 207 206 205 206 206 207 207 208 211 211 210 210 211 212 214 215 217 218 218 219 221 223 224 224 225 226 229 232 233 235 237 241 245 249 253 253 254 257 261 264 268
264 275 292 299 292 279 272 276 265 248 233 226 231 236 250 238 232 245 243 249 249 219 215 228 220 217 208 205 204 199 194 190 190 192 195 197 197 199 200 201 205 209 210 210 210 209 207 207 207 208 209 210 212 214 213 213 213 213 215 216 218 219 219 220 221 223 225 226 228 228 231 233 234 236 238 240 243 247 252 255 258 261 265 269 271
248 251 269 286 286 284 281 278 275 266 244 229 237 235 234 231 226 245 244 242 250 233 224 224 208 207 206 200 197 195 194 189 190 193 192 199 200 198 198 199 203 208 211 212 212 212 210 209 209 209 211 211 212 214 215 216 215 215 216 217 219 220 220 221 222 224 226 228 229 230 231 233 236 236 238 240 242 244 247 251 255 258 262 266 270
238 242 246 259 268 272 277 281 279 281 269 245 252 250 243 237 217 231 235 227 240 233 218 215 202 196 198 194 194 193 195 195 193 192 190 196 200 197 197 199 202 206 210 212 214 214 213 212 211 211 211 212 213 214 215 217 217 217 218 218 220 222 222 223 224 225 226 228 229 230 231 233 236 237 238 240 241 243 245 248 251 254 257 261 265
244 247 245 251 258 258 263 277 272 275 279 266 249 247 245 231 214 213 218 218 228 225 214 209 198 195 197 193 193 188 190 198 196 191 188 193 199 198 197 199 202 207 210 212 214 215 216 215 214 213 213 213 214 214 215 217 217 218 219 220 221 222 224 224 225 226 227 229 230 230 230 232 235 237 238 240 241 243 245 247 250 253 256 259 262
251 249 248 250 252 254 257 268 262 256 275 277 254 242 243 230 220 214 214 217 223 224 214 204 196 195 198 197 198 192 190 198 199 191 184 191 201 197 199 202 202 210 213 213 216 216 216 218 217 216 215 215 215 216 217 217 218 218 219 220 222 223 224 225 226 227 228 229 231 232 231 233 235 237 238 239 241 243 245 247 250 252 256 259 262
255 249 250 249 248 255 258 265 263 249 268 277 259 245 244 233 227 217 217 228 236 237 221 206 209 197 197 203 200 196 196 198 198 194 186 191 205 202 204 209 205 210 214 214 216 219 219 219 219 218 218 218 218 218 218 219 219 219 220 220 222 223 224 226 226 226 228 229 231 233 234 235 235 237 238 239 241 243 245 247 250 253 255 259 262
261 253 250 249 248 255 258 260 259 252 262 272 264 254 252 243 234 222 220 228 231 236 224 214 220 201 194 201 197 198 204 205 198 195 193 193 205 209 208 211 207 207 214 216 216 219 221 220 220 220 220 221 221 220 220 220 221 221 221 220 221 223 223 225 227 227 228 230 232 233 235 236 237 238 239 240 241 243 245 247 250 252 255 258 261
263 258 255 253 251 254 259 259 256 257 259 265 266 261 260 257 249 240 231 227 227 231 224 216 218 204 189 188 195 203 207 220 213 200 202 201 204 211 209 208 206 204 212 218 216 217 221 221 220 220 221 223 223 223 222 222 222 223 222 221 221 222 224 225 226 227 228 229 232 233 234 236 238 239 240 240 241 242 244 247 249 252 254 258 260
266 265 265 260 256 256 259 259 258 261 257 257 261 259 260 261 258 256 246 236 230 232 232 218 208 200 187 187 200 207 205 224 225 214 216 215 209 207 209 209 206 206 211 215 216 218 219 220 221 221 221 224 225 225 225 224 224 225 225 223 222 222 224 226 226 227 228 229 231 233 235 236 238 241 241 239 240 242 244 246 249 252 255 258 260
265 266 270 266 263 260 259 259 259 259 257 255 258 260 260 263 265 263 259 249 234 229 225 205 194 193 185 194 203 209 209 211 220 225 228 228 221 209 210 215 212 209 210 212 216 219 218 220 222 222 222 223 226 227 226 227 227 227 227 226 225 224 225 227 227 228 229 230 231 233 235 236 238 241 242 240 239 242 245 247 249 252 254 257 260
260 263 269 269 266 263 262 261 257 257 261 259 258 260 261 263 267 262 261 256 246 236 216 198 193 196 182 180 203 218 222 220 225 230 229 230 226 216 213 217 216 213 212 212 213 215 216 217 220 220 221 221 225 228 227 228 229 229 230 229 227 227 227 228 228 229 230 231 232 234 235 237 239 241 242 241 241 242 245 247 249 252 255 257 260
256 260 262 264 264 263 263 262 257 256 259 258 256 257 258 260 259 256 259 260 258 247 221 206 195 181 173 172 196 214 226 228 229 227 225 228 229 223 216 218 221 217 215 216 214 213 214 215 219 220 220 219 222 229 230 228 229 231 231 231 230 230 229 229 230 230 231 232 233 234 236 237 239 241 242 243 243 244 246 249 251 253 256 258 261
246 250 250 250 253 258 261 261 259 256 257 256 253 253 255 256 254 251 253 257 261 255 232 214 198 179 161 116 123 226 248 216 215 221 221 223 232 231 221 219 222 215 215 220 216 216 218 216 219 221 221 221 219 226 233 231 232 234 234 234 233 232 231 231 231 231 232 234 234 235 237 238 240 241 243 244 245 247 248 250 252 254 257 260 262
244 244 246 247 247 252 256 255 254 255 258 258 257 255 254 254 254 251 247 249 255 260 252 228 212 199 188 173 140 202 258 203 187 210 215 218 228 232 229 227 226 220 220 225 220 221 224 219 219 220 221 223 221 224 231 233 234 235 236 237 235 234 233 233 233 233 234 235 235 236 237 239 241 241 243 245 246 248 250 252 254 256 259 261 263
252 248 247 248 246 246 250 251 250 252 257 257 257 255 252 252 253 251 247 244 248 258 263 249 230 211 203 210 214 202 196 186 175 183 205 219 230 229 232 236 234 228 227 229 225 224 226 223 222 222 221 223 222 222 228 232 233 234 235 238 237 235 235 235 235 235 236 237 238 238 239 240 241 242 243 245 247 249 251 253 255 256 259 261 262
258 253 249 250 249 247 250 254 251 251 255 254 252 251 252 252 252 252 250 247 246 251 259 259 247 223 212 217 224 217 195 184 186 182 180 218 228 225 233 240 238 234 232 233 231 227 223 222 225 225 222 222 223 223 225 228 231 235 237 240 241 238 236 236 236 237 237 238 240 240 241 242 243 244 244 246 248 249 250 252 255 257 259 261 264
257 252 249 251 252 248 246 247 246 247 253 255 253 250 252 253 253 255 254 249 246 247 253 259 257 240 225 223 231 228 204 193 193 190 176 193 217 223 232 237 240 239 237 238 238 233 225 222 224 223 223 223 223 223 224 225 227 231 235 239 242 241 239 238 237 238 239 240 242 242 243 244 245 246 246 248 249 250 251 253 255 257 260 263 266
261 256 254 253 251 248 245 244 245 247 252 257 255 250 251 252 252 255 254 248 245 246 250 254 255 250 238 230 237 238 219 206 203 200 197 181 180 217 226 227 240 241 236 236 239 235 229 226 224 223 225 224 225 226 225 226 227 228 231 234 239 242 243 242 240 239 239 241 242 244 245 245 246 247 248 249 250 252 254 255 257 260 262 265 267
268 261 258 255 254 251 247 245 248 250 250 253 252 249 251 251 250 252 252 249 246 244 247 249 252 253 248 234 228 237 236 220 212 212 206 185 186 205 204 201 224 238 234 233 234 233 229 227 225 226 226 224 225 227 226 226 227 229 231 231 234 240 244 245 245 243 241 242 242 243 245 246 247 248 249 250 252 253 255 257 259 261 263 265 266
268 263 258 254 253 253 251 250 252 252 248 246 247 249 249 250 254 252 248 249 248 244 246 248 248 249 252 247 231 230 236 234 229 218 198 188 206 207 204 204 214 232 237 236 234 231 229 226 228 229 226 225 226 227 227 227 227 229 231 231 233 237 242 245 246 246 245 244 244 244 245 246 246 248 250 251 252 253 254 256 259 261 263 265 266
258 261 260 256 253 253 254 254 252 252 250 248 248 249 249 252 257 253 246 247 249 245 245 248 248 245 246 249 244 239 234 228 229 225 209 206 208 201 205 204 213 231 235 233 229 229 229 225 228 233 229 225 226 227 229 229 228 231 230 232 235 236 239 243 246 247 247 246 246 246 246 246 247 248 249 251 251 252 253 255 257 259 262 263 265
252 256 259 258 254 251 250 249 250 252 252 251 251 251 251 254 257 253 245 244 248 246 243 245 248 248 246 243 244 250 248 231 217 223 228 221 212 216 213 196 199 230 231 225 219 223 228 225 227 234 232 228 226 227 230 228 228 231 231 231 235 238 240 242 244 245 246 247 246 247 248 247 248 248 249 250 250 251 252 253 255 257 260 262 264
261 260 259 254 247 244 243 245 249 253 254 253 253 252 252 254 255 254 248 242 245 245 242 244 246 248 250 248 243 246 253 245 222 218 224 219 213 220 224 202 201 218 224 219 212 212 224 227 228 231 231 229 225 224 228 229 229 230 232 233 233 237 240 241 244 245 245 246 246 246 246 245 246 247 247 248 248 250 251 252 254 256 258 261 263
274 271 271 261 250 243 241 245 250 254 257 258 257 253 253 254 252 251 248 246 248 245 240 242 244 246 247 250 251 248 249 250 240 231 227 222 219 214 210 211 217 223 212 203 206 213 223 226 227 227 229 229 224 223 227 229 229 230 234 234 232 235 240 241 243 244 244 245 244 243 242 242 244 245 247 248 248 249 251 252 254 257 259 261 263
284 280 281 275 268 262 253 251 252 255 259 261 263 262 257 254 251 248 251 255 257 250 239 237 242 246 247 247 252 252 252 254 252 247 240 235 233 219 207 205 206 226 226 191 199 222 224 220 221 224 226 230 227 226 228 227 226 230 234 235 233 235 239 242 244 246 245 246 245 244 242 242 243 245 247 249 249 250 250 252 255 258 260 261 262
292 288 284 279 279 278 266 257 254 258 263 260 260 261 258 256 253 251 253 259 262 256 245 241 242 246 248 247 250 251 250 252 254 254 250 242 243 240 228 218 204 194 227 223 210 225 218 206 209 217 220 226 228 226 228 226 224 228 235 237 233 232 237 241 243 245 247 248 248 247 246 245 245 246 248 249 251 252 252 253 255 257 258 260 261
294 293 292 286 284 284 274 264 260 264 269 262 254 252 251 254 255 253 251 252 258 258 253 249 246 244 245 245 248 250 245 245 247 251 253 248 243 245 245 238 221 203 203 233 238 239 223 200 203 214 215 218 224 223 223 224 225 230 233 233 229 229 237 244 244 244 245 247 249 249 249 249 247 247 248 249 251 252 252 253 255 256 257 259 260
298 301 304 299 293 289 281 275 270 265 262 257 255 254 251 251 255 257 254 249 250 256 258 258 252 244 244 244 244 249 248 243 242 244 247 247 241 238 239 241 233 214 208 218 233 241 239 211 204 216 217 214 217 220 221 223 226 229 227 225 228 231 237 245 247 246 244 244 247 248 249 250 249 248 248 247 248 249 250 251 253 256 258 260 261
302 305 305 301 296 291 285 281 277 269 261 257 259 261 257 255 257 259 258 251 248 249 253 258 258 251 251 250 246 248 251 247 242 242 243 243 242 242 238 235 237 230 215 208 204 228 243 240 218 213 214 215 215 216 219 224 228 230 226 225 233 238 237 242 247 247 248 248 249 250 251 251 250 249 248 248 248 248 250 251 253 257 259 261 262
301 301 299 297 295 292 288 287 284 277 270 261 260 264 263 260 260 260 259 257 251 248 247 252 257 256 254 255 253 249 250 250 245 241 241 240 240 241 238 228 231 238 221 202 199 219 234 247 242 216 206 210 215 215 216 226 234 231 224 223 231 239 238 241 248 253 254 254 253 253 252 252 251 250 250 250 250 250 252 254 256 258 259 261 260
299 299 297 294 293 294 295 295 294 287 275 265 263 264 264 264 261 258 258 260 257 251 247 248 253 256 254 254 256 252 248 248 247 243 241 241 241 238 233 225 222 231 229 213 206 212 222 231 239 239 221 206 210 217 217 226 235 227 217 219 226 235 237 239 246 254 258 259 259 259 255 252 252 253 253 253 252 253 253 255 257 259 260 260 260
296 295 295 296 298 300 299 298 297 293 280 268 264 258 259 265 264 259 256 257 257 255 253 251 250 253 254 255 258 259 254 249 248 246 242 242 248 247 240 233 222 219 229 227 214 211 221 222 228 243 241 219 217 221 216 224 237 224 218 226 231 233 237 241 243 248 256 259 260 260 255 251 251 252 255 257 256 255 255 255 257 259 260 260 260
297 296 297 298 300 299 297 295 295 294 284 268 259 253 256 264 266 263 258 253 253 258 261 259 254 251 254 256 256 258 259 258 254 249 244 241 247 251 249 245 232 218 223 225 215 212 217 218 223 234 237 235 238 229 213 217 224 217 218 231 239 240 243 248 250 248 249 253 256 258 255 250 250 253 258 262 262 260 257 256 256 258 260 260 260
300 299 298 297 297 296 295 294 293 297 295 281 266 261 263 266 266 264 261 255 253 255 261 264 260 254 250 251 250 249 253 260 261 255 249 244 244 248 252 254 248 236 231 223 213 211 213 215 218 220 221 229 238 224 221 226 224 217 219 231 242 245 246 250 251 245 247 255 261 261 258 252 250 253 259 263 265 264 260 257 257 258 259 260 260
302 300 297 296 296 295 294 294 294 295 298 293 278 269 268 268 268 265 261 260 259 259 259 260 259 253 247 247 250 247 245 252 261 261 259 255 248 244 246 249 249 244 241 235 216 206 208 216 218 214 210 213 216 214 226 233 230 227 229 238 248 249 249 254 251 244 251 261 264 261 258 257 256 258 264 266 265 265 263 260 259 258 259 260 259
301 299 297 296 296 296 294 295 295 293 296 296 286 276 272 270 270 268 263 262 262 262 260 258 256 254 249 246 248 248 242 244 252 256 262 270 266 254 245 243 241 239 241 243 222 199 202 211 215 214 209 207 212 218 225 229 230 231 230 239 254 249 245 251 250 248 254 256 257 258 255 254 258 258 259 262 264 267 267 264 262 260 259 259 258
300 298 298 297 296 297 295 294 294 292 292 291 283 276 270 265 270 273 269 265 263 260 261 261 259 256 253 247 244 245 244 243 245 243 242 253 268 272 267 255 241 232 235 239 224 204 204 210 211 213 210 205 207 215 217 216 222 229 226 233 252 252 244 244 246 249 250 245 248 256 244 243 257 259 255 256 260 262 263 264 263 261 259 258 258
300 298 298 297 295 295 295 294 294 292 290 289 285 279 269 261 264 270 270 268 265 261 261 264 263 259 256 250 244 244 245 243 245 244 239 238 247 259 271 276 264 239 225 228 229 216 206 207 208 208 207 205 204 206 208 213 223 229 222 225 243 250 250 250 247 248 251 249 245 236 224 236 260 267 262 259 260 261 263 263 262 262 262 261 261
302 300 299 298 296 294 294 293 293 292 291 292 291 285 277 271 269 271 272 270 268 265 262 264 264 259 255 251 247 245 244 241 242 245 244 241 241 244 251 268 278 266 238 225 229 226 213 207 208 207 206 209 210 209 213 222 230 229 219 220 235 245 254 263 259 252 251 248 236 226 234 243 251 261 265 263 262 264 266 264 261 262 263 262 262
303 303 301 299 296 294 293 293 293 291 290 292 294 289 281 278 276 275 274 273 272 269 264 263 263 259 255 253 252 248 242 239 239 243 245 242 239 240 241 241 252 262 255 238 229 227 224 216 209 208 210 216 220 219 220 225 227 225 221 223 231 239 242 250 260 256 248 242 236 234 244 245 244 256 268 271 268 265 265 264 260 260 262 261 260
304 304 301 299 297 296 294 292 291 290 289 291 294 293 284 279 278 276 274 275 274 271 268 266 265 262 257 255 256 251 245 243 242 241 242 241 237 239 241 236 236 244 248 242 233 227 228 226 218 215 219 226 230 227 225 225 223 222 223 225 230 234 230 224 232 246 247 244 238 229 232 242 251 262 269 271 268 267 269 263 253 253 259 261 257
305 303 301 299 297 296 294 293 291 291 290 289 291 291 284 277 276 276 275 275 273 272 271 269 267 265 261 257 256 253 248 247 247 241 236 236 234 235 236 234 235 239 242 244 243 236 233 232 228 226 228 231 233 233 232 230 224 218 217 222 227 228 226 226 230 237 242 243 238 229 231 249 260 264 265 265 263 265 270 262 249 251 255 256 256
304 302 301 300 298 296 294 293 292 291 290 289 290 290 284 277 275 273 272 273 274 271 269 267 266 265 263 257 253 253 252 249 246 240 235 233 232 236 238 237 239 244 248 253 252 245 238 235 234 236 236 234 234 235 236 233 226 219 216 219 222 220 221 227 231 232 236 240 239 233 233 249 259 259 257 256 257 262 267 261 250 249 247 250 256
303 302 300 298 297 296 295 293 292 291 289 290 291 290 285 281 278 272 270 272 273 271 270 268 264 262 261 256 252 254 257 254 247 241 241 241 238 240 244 244 245 249 250 252 252 248 245 242 240 241 241 238 236 236 237 234 230 229 225 223 221 216 217 225 231 232 236 240 240 233 227 239 246 245 250 254 252 252 255 246 235 235 244 260 261
302 301 299 298 297 296 296 295 293 291 291 292 293 291 287 284 278 271 269 270 269 268 270 271 268 263 260 256 251 249 251 252 250 247 245 244 241 239 240 243 246 248 248 248 247 249 251 251 249 247 246 243 240 239 240 236 230 227 222 217 213 208 206 214 226 229 230 234 238 233 222 225 229 231 243 251 244 242 243 235 229 239 257 264 255
302 300 298 298 297 295 295 295 293 292 293 295 295 292 291 289 283 275 271 269 266 265 265 269 270 266 260 257 255 253 254 254 252 250 247 244 241 238 236 239 244 248 250 250 248 246 246 249 251 251 249 247 243 241 242 239 230 223 216 210 208 204 199 202 218 224 222 224 231 229 222 223 226 225 232 234 230 237 240 231 227 240 255 249 231
300 299 298 297 295 294 293 292 292 293 292 294 294 291 291 290 284 278 274 269 266 265 262 266 271 268 262 260 258 256 254 251 250 252 253 248 242 238 235 235 238 244 248 251 253 249 243 243 246 248 248 248 246 244 243 241 236 228 222 220 216 208 202 206 215 217 217 222 227 222 216 220 220 217 217 211 211 229 234 231 231 233 233 225 213
298 298 298 296 293 292 292 290 291 292 290 290 292 292 290 288 283 280 276 268 265 267 266 267 271 270 266 264 260 254 249 246 247 248 249 247 244 242 240 236 235 243 247 246 249 250 246 245 248 249 248 247 246 244 242 241 240 236 233 232 225 213 209 213 213 204 204 229 229 215 206 212 216 214 211 198 184 208 219 225 230 224 220 213 203